When you browse on this site, cookies collect data to enhance your experience and personalize the content and advertising you see.
Visit our Privacy Policy to learn more. By continuing to use the site, you agree to this use of cookies and data.
  • In Czech Republic
  • List of Countries
  • For 7 days
  • Water Temperature
  • Satellite Maps
  • Weather Map
  • Weather Widgets
  • user-avatar
    Login

    Hourly Weather Dzierwany

    Today, 23 February, Saturday

    Time Temperature Precipitation Wind Pressure Humidity
    00:00 -9°C° 0 mm 4 mps 756 mmHg 52%
    01:00 -8°C° 0 mm 3 mps 757 mmHg 54%
    02:00 -7°C° 0 mm 2 mps 757 mmHg 56%
    03:00 -7°C° 0 mm 2 mps 757 mmHg 57%
    04:00 -7°C° 0 mm 1 mps 757 mmHg 58%
    05:00 -7°C° 0 mm 1 mps 756 mmHg 59%
    06:00 -7°C° 0 mm 1 mps 757 mmHg 57%
    07:00 -6°C° 0 mm 1 mps 757 mmHg 56%
    08:00 -6°C° 0 mm 1 mps 757 mmHg 55%
    09:00 -6°C° 0 mm 2 mps 757 mmHg 50%
    10:00 -6°C° 0 mm 3 mps 757 mmHg 45%
    11:00 -5°C° 0 mm 3 mps 757 mmHg 40%
    12:00 -5°C° 0 mm 3 mps 757 mmHg 37%
    13:00 -5°C° 0 mm 4 mps 756 mmHg 35%
    14:00 -4°C° 0 mm 4 mps 756 mmHg 32%
    15:00 -4°C° 0 mm 4 mps 756 mmHg 32%
    16:00 -4°C° 0 mm 4 mps 755 mmHg 33%
    17:00 -5°C° 0 mm 5 mps 755 mmHg 33%
    18:00 -5°C° 0 mm 5 mps 754 mmHg 37%
    19:00 -5°C° 0 mm 4 mps 754 mmHg 40%
    20:00 -5°C° 0 mm 4 mps 754 mmHg 43%
    21:00 -5°C° 0 mm 4 mps 753 mmHg 44%
    22:00 -5°C° 0 mm 4 mps 753 mmHg 44%
    23:00 -5°C° 0 mm 4 mps 753 mmHg 45%

    Tomorrow, 24 February, Sunday

    Time Temperature Precipitation Wind Pressure Humidity
    00:00 -5°C° 0 mm 4 mps 752 mmHg 46%
    01:00 -5°C° 0 mm 4 mps 752 mmHg 48%
    02:00 -7°C° 0 mm 4 mps 752 mmHg 50%
    03:00 -5°C° 0 mm 4 mps 751 mmHg 53%
    04:00 -5°C° 0 mm 4 mps 751 mmHg 56%
    05:00 -5°C° 0 mm 4 mps 751 mmHg 59%
    06:00 -5°C° 0 mm 4 mps 751 mmHg 62%
    07:00 -5°C° 0 mm 3 mps 750 mmHg 65%
    08:00 -4°C° 0 mm 3 mps 750 mmHg 68%
    09:00 -4°C° 0 mm 3 mps 750 mmHg 68%
    10:00 -2°C° 0 mm 3 mps 750 mmHg 68%
    11:00 -1°C° 0 mm 3 mps 750 mmHg 68%
    12:00 0°C° 0 mm 3 mps 749 mmHg 67%
    13:00 +1°C° 0 mm 3 mps 749 mmHg 66%
    14:00 +1°C° 0 mm 4 mps 749 mmHg 66%
    15:00 0°C° 0 mm 4 mps 749 mmHg 70%
    16:00 0°C° 0 mm 4 mps 749 mmHg 74%
    17:00 +1°C° 0 mm 3 mps 748 mmHg 78%
    18:00 -1°C° 0 mm 4 mps 748 mmHg 82%
    19:00 -1°C° 0 mm 4 mps 748 mmHg 86%
    20:00 -2°C° 0 mm 4 mps 748 mmHg 90%
    21:00 -2°C° 0 mm 4 mps 748 mmHg 92%
    22:00 -2°C° 0 mm 4 mps 748 mmHg 94%
    23:00 -2°C° 0 mm 4 mps 748 mmHg 96%

    Day after tomorrow, 25 February, Monday

    Time Temperature Precipitation Wind Pressure Humidity
    00:00 -2°C° 0 mm 4 mps 748 mmHg 96%
    01:00 -2°C° 0 mm 4 mps 748 mmHg 97%
    02:00 -2°C° 0 mm 4 mps 748 mmHg 97%
    03:00 -1°C° 0 mm 3 mps 748 mmHg 96%
    04:00 -2°C° 0 mm 3 mps 748 mmHg 95%
    05:00 -2°C° 0 mm 3 mps 748 mmHg 93%
    06:00 -2°C° 0 mm 3 mps 748 mmHg 93%
    07:00 -2°C° 0 mm 3 mps 748 mmHg 92%
    08:00 -2°C° 0 mm 3 mps 748 mmHg 91%
    09:00 0°C° 0 mm 3 mps 748 mmHg 86%
    10:00 0°C° 0 mm 4 mps 748 mmHg 81%
    11:00 +3°C° 0 mm 4 mps 748 mmHg 75%
    12:00 +2°C° 0 mm 5 mps 748 mmHg 76%
    13:00 +3°C° 0 mm 5 mps 747 mmHg 77%
    14:00 +3°C° 0 mm 6 mps 747 mmHg 78%
    15:00 +2°C° 0 mm 6 mps 747 mmHg 83%
    16:00 +1°C° 0 mm 6 mps 746 mmHg 88%
    17:00 -1°C° 0 mm 6 mps 746 mmHg 93%
    18:00 -1°C° 0 mm 6 mps 746 mmHg 93%
    19:00 -2°C° 0 mm 6 mps 746 mmHg 94%
    20:00 -1°C° 0 mm 5 mps 746 mmHg 94%
    21:00 -2°C° 0 mm 5 mps 745 mmHg 94%
    22:00 -2°C° 0 mm 5 mps 745 mmHg 94%
    23:00 -3°C° 0 mm 4 mps 745 mmHg 95%

    26 February, Tuesday

    Time Temperature Precipitation Wind Pressure Humidity
    00:00 -3°C° 0 mm 4 mps 745 mmHg 94%
    01:00 -3°C° 0 mm 4 mps 745 mmHg 93%
    02:00 -3°C° 0 mm 4 mps 744 mmHg 92%
    03:00 -3°C° 0 mm 4 mps 744 mmHg 90%
    04:00 -2°C° 0 mm 4 mps 743 mmHg 88%
    05:00 -2°C° 0 mm 4 mps 743 mmHg 85%
    06:00 -2°C° 0 mm 5 mps 742 mmHg 88%
    07:00 -2°C° 0 mm 5 mps 742 mmHg 91%
    08:00 -2°C° 0 mm 5 mps 742 mmHg 94%
    09:00 -2°C° 0 mm 6 mps 741 mmHg 90%
    10:00 -1°C° 0 mm 6 mps 741 mmHg 85%
    11:00 +1°C° 0 mm 6 mps 741 mmHg 81%
    12:00 +2°C° 0 mm 7 mps 741 mmHg 76%
    13:00 +3°C° 0 mm 7 mps 741 mmHg 72%
    14:00 +4°C° 0 mm 8 mps 741 mmHg 68%
    15:00 +4°C° 0 mm 7 mps 741 mmHg 69%
    16:00 +3°C° 0 mm 7 mps 741 mmHg 70%
    17:00 +3°C° 0 mm 7 mps 741 mmHg 70%
    18:00 +2°C° 0 mm 6 mps 742 mmHg 74%
    19:00 +1°C° 0 mm 6 mps 742 mmHg 78%
    20:00 0°C° 0 mm 5 mps 743 mmHg 81%
    21:00 -1°C° 0 mm 5 mps 743 mmHg 84%
    22:00 -1°C° 0 mm 4 mps 743 mmHg 87%
    23:00 -2°C° 0 mm 4 mps 743 mmHg 90%

    27 February, Wednesday

    Time Temperature Precipitation Wind Pressure Humidity
    00:00 -2°C° 0 mm 4 mps 743 mmHg 90%
    01:00 -2°C° 0 mm 4 mps 743 mmHg 90%
    02:00 -2°C° 0 mm 4 mps 743 mmHg 91%
    03:00 -2°C° 0 mm 4 mps 743 mmHg 90%
    04:00 -1°C° 0 mm 3 mps 742 mmHg 89%
    05:00 -1°C° 0 mm 3 mps 742 mmHg 89%
    06:00 -1°C° 0 mm 3 mps 741 mmHg 86%
    07:00 -1°C° 0 mm 3 mps 741 mmHg 83%
    08:00 -1°C° 0 mm 3 mps 740 mmHg 80%
    09:00 0°C° 0 mm 4 mps 740 mmHg 79%
    10:00 +1°C° 0 mm 5 mps 739 mmHg 77%
    11:00 +2°C° 0 mm 5 mps 739 mmHg 76%
    12:00 +3°C° 0 mm 5 mps 738 mmHg 76%
    13:00 +4°C° 0 mm 6 mps 737 mmHg 77%
    14:00 +4°C° 0 mm 6 mps 737 mmHg 77%
    15:00 +4°C° 0 mm 6 mps 736 mmHg 78%
    16:00 +4°C° 0 mm 6 mps 736 mmHg 79%
    17:00 +3°C° 0 mm 6 mps 735 mmHg 80%
    18:00 +3°C° 0 mm 6 mps 735 mmHg 79%
    19:00 +2°C° 0 mm 7 mps 734 mmHg 77%
    20:00 0°C° 0 mm 7 mps 734 mmHg 76%
    21:00 0°C° 0 mm 7 mps 733 mmHg 74%
    22:00 -1°C° 0 mm 6 mps 733 mmHg 72%
    23:00 -1°C° 0 mm 6 mps 732 mmHg 70%

    28 February, Thursday

    Time Temperature Precipitation Wind Pressure Humidity
    00:00 -1°C° 0 mm 6 mps 731 mmHg 71%
    01:00 -1°C° 0 mm 6 mps 731 mmHg 72%
    02:00 -1°C° 0 mm 6 mps 731 mmHg 73%
    03:00 -2°C° 0 mm 6 mps 730 mmHg 75%
    04:00 -2°C° 0 mm 6 mps 730 mmHg 77%
    05:00 -2°C° 0 mm 6 mps 730 mmHg 79%
    06:00 -2°C° 0 mm 6 mps 729 mmHg 81%
    07:00 -2°C° 0 mm 6 mps 729 mmHg 83%
    08:00 -2°C° 0 mm 6 mps 729 mmHg 84%
    09:00 -1°C° 0 mm 7 mps 729 mmHg 79%
    10:00 0°C° 0 mm 7 mps 729 mmHg 73%
    11:00 +1°C° 0 mm 8 mps 729 mmHg 67%
    12:00 +1°C° 0 mm 8 mps 729 mmHg 65%
    13:00 +2°C° 0 mm 9 mps 730 mmHg 62%
    14:00 +2°C° 0 mm 9 mps 730 mmHg 59%
    15:00 +2°C° 0 mm 9 mps 730 mmHg 62%
    16:00 +1°C° 0 mm 9 mps 730 mmHg 65%
    17:00 +1°C° 0 mm 9 mps 730 mmHg 67%
    18:00 0°C° 0 mm 8 mps 730 mmHg 68%
    19:00 -1°C° 0 mm 8 mps 731 mmHg 69%
    20:00 -2°C° 0 mm 7 mps 731 mmHg 70%
    21:00 -2°C° 0 mm 7 mps 731 mmHg 72%
    22:00 -3°C° 0 mm 7 mps 732 mmHg 74%
    23:00 -3°C° 0 mm 7 mps 732 mmHg 76%
    Show more